Atlantic - Newfoundland: Past 24 Hour Conditions

 

Blanc-Sablon Airport

01:00 PM AST 23 April 2014
This table is a summary of hourly weather conditions for the past 24 hours.
Date / Time
(AST)
Wind(knots) Conditions Visibility(km) Pressure(kPa) Air tempC) Relative humidity(%) Dew pointC) Wind Chill
23 April 2014
13:00 ENE 23 gust 29 Cloudy 24 101.4 -1 78 -4 -9
12:00 ENE 26 gust 31 Cloudy 24 101.4 -1 78 -4 -9
11:00 ENE 22 gust 29 Cloudy 24 101.4 -1 77 -4 -8
10:00 ENE 25 Cloudy 24 101.4 -1 81 -4 -10
9:00 ENE 23 gust 28 Cloudy 24 101.4 -2 84 -4 -10
8:00 ENE 21 Cloudy 24 101.4 -2 83 -4 -9
7:00 ENE 20 Cloudy 24 101.4 -2 80 -5 -9
6:00 ENE 19 Cloudy 24 101.4 -2 80 -5 -10
5:00 ENE 16 Cloudy 24 101.3 -2 80 -5 -10
4:00 ENE 17 Cloudy 24 101.3 -2 82 -5 -10
3:00 ENE 17 gust 22 Partly Cloudy 24 101.3 -3 86 -5 -10
2:00 ENE 18 Mainly Clear 24 101.3 -3 85 -5 -10
1:00 ENE 13 Partly Cloudy 24 101.4 -3 84 -6 -10
0:00 ENE 16 Partly Cloudy 24 101.4 -3 83 -6 -11
22 April 2014
23:00 ENE 13 Mainly Clear 24 101.4 -3 80 -6 -10
22:00 ENE 15 Mainly Clear 24 101.3 -3 74 -7 -10
21:00 ENE 16 Mainly Clear 24 101.4 -3 76 -6 -10
20:00 ENE 17 Mainly Clear 24 101.3 -2 73 -7 -10
19:00 E 17 Mainly Clear 24 101.2 -2 71 -6 -9
18:00 E 16 Mainly Sunny 24 101.2 -1 71 -6 -8
17:00 E 14 Mainly Sunny 24 101.2 0 68 -5 -6
16:00 E 17 Mainly Sunny 24 101.2 0 71 -4 *
15:00 E 15 gust 20 Mainly Sunny 24 101.2 1 70 -4 *
14:00 ENE 14 Mainly Sunny 24 101.2 0 71 -4 *
13:00 E 13 Sunny 24 101.2 1 68 -5 *
 
Map of Atlantic - Newfoundland marine weather areas Southwestern Grand Banks - 44138 Banquereau - 44139 Tail of the Bank - 44140 Nickerson Bank - 44251 Northeast Burgeo Bank - 44255 Blanc-Sablon Airport Cap Whittle Chevery Natashquan Airport Heath Point Miscou Island Grand Étang Ingonish Beach North Mountain St.Paul Island J.A. Douglas McCurdy Sydney Airport Charlottetown Airport East Point North Cape Argentia Bonavista Burgeo Cape Race Corner Brook Daniel's Harbour Englee Ferolle Point La Scie Port aux Basques Rocky Harbour Sagona Island St. Anthony Airport St. John's Int'l Airport St. Lawrence Stephenville Airport Twillingate Winterland Wreckhouse Cartwright Airport Mary's Harbour Grates Cove Pool's Island Marticot Island Long Pond Îles de la Madeleine Airport
Legend: buoyBuoy land stationLand Station